Location: Im Fang
(46.6019°N, 7.2397°E)
Time: 08:04:33
(UTC+00:00)

STARLINK 1040 - Pass Details

Date: 08 December 2019
Orbit: 337 x 342 km, 53.0° (Epoch: 24 January)

Event Time Altitude Azimuth Distance (km) Brightness Sun altitude
Exits shadow 05:31:02 37° 293° (WNW) 585 3.2 -14.9°
Maximum altitude 05:32:04 79° 212° (SSW) 377 2.7 -14.7°
Drops below altitude 10° 05:35:05 10° 125° (SE) 1,347 6.8 -14.2°
Sets 05:37:05 0° 124° (SE) 2,187 8.3 -13.9°
